www.pogodaiklimat.ru

Погода и климат >> Архив погоды >> Австралия >> Onslow Airport


ПОГОДА в Onslow Airport

  • Прогноз погоды в Onslow Airport
  • Монитор погоды в Onslow Airport
  • Климат города

АРХИВ ПОГОДЫ в Onslow Airport

Время (UTC), дата Ветер
(напр.,м/с)
 
Видим.   Явления Облачность Т
(С)
Тd
(С)
f
(%)
Тe
(С)
Тes
(С)
Комфортность P
(гПа)
Po
(гПа)
Тmin
(С)
Tmax
(С)
R
(мм)
R24
(мм)
S
(см)
13 17.06 ЮЗ 3 н/о н/о +19.3 +12.3 64 +21 +21 комфорт 1020.0 1018.7 +30.8
15 17.06 Ю 3 н/о н/о +17.9 +11.2 65 +18 +18 1020.0 1018.7
16 17.06 Ю 2 н/о н/о +18.0 +10.9 63 +19 +19 1019.6 1018.3
18 17.06 Ю 3 н/о н/о +16.7 +8.9 60 +16 +16 1019.2 1017.9
19 17.06 ЮВ 3 н/о н/о +16.8 +8.5 58 +17 +17 1019.1 1017.8
21 17.06 ЮВ 1 н/о н/о +15.4 +9.1 66 +17 +17 1019.1 1017.8
22 17.06 ЮВ 2 н/о н/о +14.9 +8.6 66 +15 +15 1019.6 1018.3
00 18.06 ЮВ 5 н/о н/о +17.8 +8.6 55 +17 +17 1020.5 1019.2
01 18.06 ЮВ 5 н/о н/о +20.6 +8.9 47 +22 +22 комфорт 1020.8 1019.5 +14.0
03 18.06 В 6 н/о н/о +27.3 +8.2 30 +27 +27 жарко 1019.8 1018.5
04 18.06 СВ 5 н/о н/о +29.7 +8.7 27 +29 +29 жарко 1018.8 1017.5
06 18.06 С 6 н/о н/о +29.2 +6.0 23 +28 +28 жарко 1017.0 1015.7
07 18.06 С 6 н/о н/о +27.9 +8.7 30 +28 +28 жарко 1016.8 1015.5
09 18.06 С 5 н/о н/о +25.1 +12.3 45 +27 +27 жарко 1017.1 1015.8
10 18.06 С 4 н/о н/о +22.1 +14.7 63 +25 +25 комфорт 1017.8 1016.5
12 18.06 ЮЗ 4 н/о н/о +20.5 +14.8 70 +23 +23 комфорт 1019.1 1017.8
13 18.06 ЮЗ 3 н/о н/о +20.3 +13.0 63 +23 +23 комфорт 1019.9 1018.6 +30.0
15 18.06 Ю 2 н/о н/о +17.8 +12.5 71 +18 +18 1020.2 1018.9
16 18.06 Ю 4 н/о н/о +17.7 +12.2 70 +18 +18 1019.8 1018.5
18 18.06 ЮЗ 4 н/о н/о +17.7 +11.0 65 +18 +18 1019.2 1017.9
19 18.06 ЮЗ 3 н/о н/о +17.3 +10.2 63 +17 +17 1018.8 1017.5
21 18.06 В 4 н/о н/о +15.5 +10.5 72 +15 +15 1018.8 1017.5
22 18.06 В 4 н/о н/о +15.1 +9.9 71 +14 +14 1019.2 1017.9
00 19.06 СВ 4 н/о н/о +20.7 +9.3 48 +22 +22 комфорт 1020.4 1019.1
01 19.06 СВ 3 н/о н/о +23.2 +8.5 39 +24 +24 комфорт 1020.8 1019.5 +14.9
03 19.06 СВ 6 н/о н/о +27.2 +4.9 24 +26 +26 жарко 1019.7 1018.4
04 19.06 С 5 н/о н/о +27.0 +5.3 25 +26 +26 жарко 1019.0 1017.7
06 19.06 С 5 н/о н/о +27.8 +6.6 26 +27 +27 жарко 1017.6 1016.3
07 19.06 С 5 н/о н/о +26.5 +9.4 34 +27 +27 жарко 1017.0 1015.7
09 19.06 СЗ 5 н/о н/о +24.4 +13.9 52 +27 +27 жарко 1017.0 1015.7
10 19.06 З 3 н/о н/о +21.6 +15.7 69 +25 +25 комфорт 1017.4 1016.1
12 19.06 ЮЗ 3 н/о н/о +19.8 +14.6 72 +22 +22 комфорт 1018.4 1017.1
13 19.06 штиль 0 н/о н/о +19.0 +14.5 75 +20 +20 1018.6 1017.3 +29.1
15 19.06 ЮВ 2 н/о н/о +17.8 +13.9 78 +18 +18 1018.6 1017.3
16 19.06 ЮВ 2 н/о н/о +17.4 +13.9 80 +18 +18 1018.3 1017.0
18 19.06 ЮЗ 5 н/о н/о +17.9 +14.0 78 +18 +18 1017.7 1016.4
19 19.06 В 4 н/о н/о +17.3 +13.8 80 +17 +17 1018.0 1016.7
21 19.06 В 4 н/о н/о +16.7 +14.0 84 +16 +16 1017.4 1016.1
22 19.06 В 3 н/о н/о +16.9 +14.2 84 +17 +17 1017.3 1016.0
00 20.06 СВ 2 н/о н/о +18.1 +13.6 75 +19 +19 1018.5 1017.2
01 20.06 СВ 2 н/о н/о +21.1 +14.3 65 +24 +24 комфорт 1019.3 1018.0 +15.6
03 20.06 С 3 н/о н/о +26.3 +11.2 39 +27 +27 жарко 1018.8 1017.5
04 20.06 С 4 н/о н/о +27.6 +9.4 32 +28 +28 жарко 1017.9 1016.6
06 20.06 С 4 н/о н/о +29.0 +7.0 25 +28 +28 жарко 1016.3 1015.0
07 20.06 С 5 н/о н/о +27.7 +7.5 28 +27 +27 жарко 1016.1 1014.8
09 20.06 СЗ 5 н/о н/о +25.2 +8.7 35 +26 +26 жарко 1016.3 1015.0
10 20.06 СЗ 3 н/о н/о +21.9 +14.8 64 +25 +25 комфорт 1016.6 1015.3
12 20.06 СЗ 3 н/о н/о +20.1 +15.9 77 +23 +23 комфорт 1017.9 1016.6
13 20.06 З 2 н/о н/о +19.3 +15.6 79 +22 +22 комфорт 1018.1 1016.8 +29.5
15 20.06 ЮЗ 3 н/о н/о +19.5 +15.8 79 +22 +22 комфорт 1018.2 1016.9
16 20.06 ЮЗ 3 н/о н/о +18.9 +15.6 81 +20 +20 1017.9 1016.6
18 20.06 Ю 4 н/о н/о +19.1 +15.4 79 +21 +21 комфорт 1017.3 1016.0
19 20.06 ЮЗ 5 н/о н/о +19.4 +14.0 71 +21 +21 комфорт 1016.9 1015.6
21 20.06 Ю 4 н/о н/о +19.0 +11.1 60 +20 +20 1016.5 1015.2
22 20.06 Ю 3 н/о н/о +18.0 +10.9 63 +18 +18 1016.8 1015.5
00 21.06 ЮВ 3 н/о н/о +19.4 +12.9 66 +21 +21 комфорт 1017.9 1016.6
01 21.06 ЮВ 4 н/о н/о +21.0 +11.9 56 +23 +23 комфорт 1018.4 1017.1 +16.5
03 21.06 ЮВ 4 н/о н/о +25.7 +9.9 37 +26 +26 жарко 1017.8 1016.5
04 21.06 Ю 2 н/о н/о +27.1 +8.0 30 +27 +27 жарко 1017.0 1015.7
06 21.06 СЗ 4 н/о н/о +27.6 +13.2 41 +29 +29 жарко 1015.5 1014.2
07 21.06 З 5 н/о н/о +27.6 +12.0 38 +29 +29 жарко 1015.3 1014.0
09 21.06 З 5 н/о н/о +26.2 +14.3 48 +29 +29 жарко 1015.5 1014.2
10 21.06 ЮЗ 5 н/о н/о +25.0 +7.6 33 +25 +25 комфорт 1016.0 1014.7
12 21.06 ЮЗ 5 н/о н/о +23.1 +11.8 49 +26 +26 жарко 1017.5 1016.2
13 21.06 ЮЗ 7 н/о н/о +23.2 +11.9 49 +26 +26 жарко 1018.2 1016.9 +29.7
15 21.06 Ю 5 н/о н/о +21.0 +12.7 59 +23 +23 комфорт 1018.2 1016.9
16 21.06 ЮЗ 5 н/о н/о +20.1 +12.6 62 +22 +22 комфорт 1018.0 1016.7
18 21.06 Ю 5 н/о н/о +19.8 +11.8 60 +21 +21 комфорт 1017.6 1016.3
19 21.06 Ю 5 н/о н/о +20.0 +12.3 61 +22 +22 комфорт 1017.3 1016.0
21 21.06 Ю 5 н/о н/о +19.5 +12.0 62 +21 +21 комфорт 1017.0 1015.7
22 21.06 Ю 4 н/о н/о +19.1 +12.1 64 +20 +20 1017.4 1016.1
00 22.06 Ю 7 н/о н/о +19.3 +11.3 60 +20 +20 1019.0 1017.7
01 22.06 Ю 8 н/о н/о +21.5 +11.2 52 +23 +23 комфорт 1019.8 1018.5 +18.9
03 22.06 Ю 8 н/о н/о +24.6 +10.8 42 +26 +26 жарко 1019.1 1017.8
04 22.06 Ю 7 н/о н/о +25.6 +10.6 39 +27 +27 жарко 1018.1 1016.8
06 22.06 Ю 7 н/о н/о +26.6 +9.0 33 +27 +27 жарко 1016.2 1014.9
07 22.06 Ю 7 н/о н/о +26.7 +9.1 33 +27 +27 жарко 1015.9 1014.6
09 22.06 Ю 6 н/о н/о +25.4 +8.0 33 +26 +26 жарко 1016.2 1014.9
10 22.06 Ю 5 н/о н/о +23.9 +8.3 37 +24 +24 комфорт 1016.7 1015.4
12 22.06 Ю 5 н/о н/о +21.4 +9.0 45 +23 +23 комфорт 1017.9 1016.6
13 22.06 Ю 7 н/о н/о +20.9 +8.5 45 +22 +22 комфорт 1018.5 1017.2 +27.8
15 22.06 Ю 5 н/о н/о +19.2 +7.9 48 +20 +20 1018.9 1017.6
16 22.06 Ю 5 н/о н/о +18.3 +8.0 51 +18 +18 1018.9 1017.6
18 22.06 Ю 6 н/о н/о +17.1 +7.7 54 +16 +16 1018.2 1016.9
19 22.06 Ю 5 н/о н/о +16.8 +8.5 58 +16 +16 1018.0 1016.7
21 22.06 Ю 5 н/о н/о +14.9 +7.9 63 +14 +14 1017.9 1016.6
22 22.06 Ю 5 н/о н/о +13.6 +7.6 67 +12 +12 1017.9 1016.6
00 23.06 Ю 4 н/о н/о +15.0 +8.3 64 +14 +14 1019.1 1017.8
01 23.06 Ю 5 н/о н/о +17.6 +8.2 54 +17 +17 1019.3 1018.0 +13.5
03 23.06 Ю 6 н/о н/о +22.2 +6.0 35 +23 +23 комфорт 1018.3 1017.0
04 23.06 Ю 6 н/о н/о +23.9 +4.3 28 +24 +24 комфорт 1017.6 1016.3
06 23.06 Ю 6 н/о н/о +25.0 +3.0 24 +24 +24 комфорт 1015.1 1013.8
07 23.06 Ю 6 н/о н/о +25.0 +3.0 24 +24 +24 комфорт 1014.6 1013.3
09 23.06 ЮЗ 6 н/о н/о +23.9 +3.2 26 +23 +23 комфорт 1014.5 1013.2
10 23.06 ЮЗ 4 н/о н/о +21.2 +5.6 36 +22 +22 комфорт 1015.1 1013.8
12 23.06 ЮЗ 4 н/о н/о +18.8 +6.6 45 +19 +19 1015.9 1014.6
13 23.06 ЮЗ 5 н/о н/о +18.2 +6.7 47 +18 +18 1016.2 1014.9
15 23.06 ЮЗ 5 н/о н/о +16.5 +7.2 54 +16 +16 1016.5 1015.2
16 23.06 ЮЗ 5 н/о н/о +16.2 +8.9 62 +15 +15 1016.1 1014.8
18 23.06 ЮЗ 6 н/о н/о +15.3 +9.0 66 +14 +14 1015.9 1014.6
19 23.06 ЮЗ 5 н/о н/о +14.2 +8.6 69 +13 +13 1015.6 1014.3
21 23.06 Ю 4 н/о н/о +13.7 +9.0 73 +12 +12 1014.9 1013.6
22 23.06 Ю 4 н/о н/о +13.8 +8.0 68 +12 +12 1014.9 1013.6
00 24.06 ЮЗ 4 н/о н/о +14.0 +6.6 61 +13 +13 1016.0 1014.7
01 24.06 Ю 3 н/о н/о +17.0 +6.2 49 +17 +17 1016.3 1015.0
03 24.06 Ю 5 н/о н/о +23.5 +4.0 28 +23 +23 комфорт 1015.4 1014.1
04 24.06 ЮЗ 6 н/о н/о +24.1 +5.0 29 +24 +24 комфорт 1014.4 1013.1
06 24.06 ЮЗ 6 н/о н/о +26.0 +5.6 27 +25 +25 комфорт 1012.6 1011.3
07 24.06 ЮЗ 8 н/о н/о +24.2 +7.8 35 +25 +25 комфорт 1012.3 1011.0
09 24.06 З 8 н/о н/о +22.4 +12.6 54 +25 +25 комфорт 1013.0 1011.7
10 24.06 З 6 н/о н/о +20.7 +12.7 60 +23 +23 комфорт 1013.5 1012.2
12 24.06 З 4 н/о н/о +19.1 +12.4 65 +20 +20 1014.9 1013.6

 

Местоположение метеостанции Onslow Airport (Западная Австралия, Австралия): широта -21.67 долгота 115.12 высота над уровнем моря 4 м.

В архиве по умолчанию представлена погода в Onslow Airport за последнюю неделю. Архивные данные за месяц целиком и за предыдущие месяцы, начиная с января 2011 года, Вы можете получить, выбрав интересующий диапазон дат из раскрывающегося списка и нажав кнопку "Ввод!".

Внимание! Время в таблицах - всемирное. Для получения местного времени необходимо прибавить поправку, которая в Onslow Airport равна 8 ч.

Смотрите также архив погоды в соседних городах и на ближайших метеорологических станциях:

Погода в Thevenard Island (Западная Австралия, Австралия) (27 км)
Погода в Barrow Island Airport (Западная Австралия, Австралия) (93 км)
Погода в Mardie (Западная Австралия, Австралия) (104 км)
Погода в Varanus Island (Западная Австралия, Австралия) (123 км)
Погода в Learmonth Airport (Западная Австралия, Австралия) (124 км)
Погода в Karratha Aero (Западная Австралия, Австралия) (201 км)
Погода в Roebourne Aero (Западная Австралия, Австралия) (234 км)
Погода в Paraburdoo Aero (Западная Австралия, Австралия) (318 км)
Погода в Carnarvon Airport (Западная Австралия, Австралия) (387 км)
Погода в Port Hedland Apardoo (Западная Австралия, Австралия) (392 км)

Пояснения к столбцам:

Ветер - указаны скорость ветра в м/с - средняя за 10 мин, порывы в срок и между сроками (в фигурных скобках) и направление, откуда дует ветер: С - северный, СВ - северо-восточный, В - восточный, ЮВ - юго-восточный, Ю - южный, ЮЗ - юго-западный, З - западный, СЗ - северо-западный.
Видимость - горизонтальная дальность видимости в метрах или километрах. При видимости от 1 до 10 км при отсутствии осадков обычно наблюдается дымка, при ухудшении видимости до 1 км и менее - туман. В сухую погоду видимость может ухудшаться дымом, пылью или мглою.
Явления - указаны атмосферные явления, наблюдавшиеся в срок или в последний час перед сроком; фигурными скобками обозначены явления, наблюдавшиеся между сроками (за 1-3 часа до срока); квадратными скобками обозначены град или гололедные отложения с указанием их диаметра в мм.
Облачность - указаны через наклонную черту общая и нижняя облачность в баллах и высота нижней границы облаков в метрах; квадратными скобками обозначены формы облаков: Ci - перистые, Cs - перисто-слоистые, Cc - перисто-кучевые, Ac - высококучевые, As - высокослоистые, Sc - слоисто-кучевые, Ns - слоисто-дождевые, Cu - кучевые, Cb - кучево-дождевые. Подробнее классификацию облаков см. в Атласе облаков (PDF).
T - Температура воздуха - температура, измеренная на высоте 2 м над землей.
Td - Температура точки росы - температура, при понижении до которой содержащийся в воздухе водяной пар достигнет насыщения.
f - Относительная влажность воздуха - влажноcть воздуха, измеренная на высоте 2 м над землей.
Te - Эффективная температура - температура, которую ощущает одетый по сезону человек в тени. Характеристика душности погоды. При расчете учитывается влияние влажности воздуха и скорости ветра на теплоощущения человека.
Tes - Эффективная температура на солнце - температура, которую ощущает человек, с поправкой на солнечный нагрев. Характеристика знойности погоды. Зависит от высоты солнца над горизонтом, облачности и скорости ветра. Ночью, в пасмурную погоду, а также при ветре 12 м/с и более поправка равна нулю.
P - Атмосферное давление - приведенное к уровню моря атмосферное давление.
Po - Атмосферное давление - измеренное на уровне метеостанции атмосферное давление.
Tmin - Минимальная температура - минимум температуры воздуха на высоте 2 м над землей.
Tmax - Максимальная температура - максимум температуры воздуха на высоте 2 м над землей.
R - Количество осадков - Количество выпавших осадков за период времени, мм. При наведении курсора мыши на число - период времени, за который выпало указанное количество осадков.
R24 - Количество осадков - Количество выпавших осадков за 24 часа, мм.
S - Снежный покров - Высота снежного покрова, см. При наведении курсора мыши на число - состояние снежного покрова и степень покрытия местности в баллах.